Regional Weather Roundup
Issued by NWS

Home | Current Version | Previous Version | Text Only | Print | Product List | Glossary Off
Versions: 1 2 3 4 5 6 7 8 9 10 11 12 13 14 15 16 17 18 19 20 21 22 23 24 25 26 27 28 29 30 31 32 33 34 35 36 37 38 39 40 41 42 43 44 45 46 47 48 49 50

000
ASUS43 KFSD 292002
RWRSD

WEATHER ROUNDUP FOR SOUTH DAKOTA
NATIONAL WEATHER SERVICE SIOUX FALLS SD
300 PM CDT SUN MAY 29 2016

NOTE: "FAIR" INDICATES FEW OR NO CLOUDS BELOW 12,000 FEET WITH NO
SIGNIFICANT WEATHER AND/OR OBSTRUCTIONS TO VISIBILITY.


SDZ001>005-009-010-012>017-292100-
NORTHWEST AND NORTH CENTRAL SOUTH DAKOTA

CITY           SKY/WX    TMP DP  RH WIND       PRES   REMARKS
BUFFALO          N/A     76  45  33 SE17      29.96F
FAITH            N/A     75  50  41 S12       30.02F
MOBRIDGE       SUNNY     77  50  38 S7        30.00F
$$

SDZ012>016-024>037-041>051-057-063-072>074-292100-
SOUTHWEST AND SOUTH CENTRAL SOUTH DAKOTA

CITY           SKY/WX    TMP DP  RH WIND       PRES   REMARKS
RAPID CTY ARPT MOSUNNY   74  50  42 SE13      30.04F
PIERRE         SUNNY     76  47  35 VRB5      30.02F
CUSTER         MOSUNNY   62  41  46 S7G20     30.13F
ELLSWORTH AFB  MOSUNNY   73  49  43 SE13      30.04F
PHILIP         MOSUNNY   77  51  40 SE8       30.03F
PINE RIDGE     MOSUNNY   78  48  34 S9        30.03F
WINNER         FAIR      78  54  43 SE8       30.05F
$$

SDZ004>011-016>023-039-040-292100-
NORTHEAST SOUTH DAKOTA

CITY           SKY/WX    TMP DP  RH WIND       PRES   REMARKS
ABERDEEN       MOSUNNY   79  46  31 W8        30.00F
WATERTOWN      SUNNY     77  49  37 NW14      30.02F
BROOKINGS      SUNNY     74  49  41 NW12G21   30.03F
SISSETON         N/A     79  43  27 NW18G31   29.97S
$$

SDZ017-020-022-023-036>040-048>070-292100-
SOUTHEAST SOUTH DAKOTA

CITY           SKY/WX    TMP DP  RH WIND       PRES   REMARKS
SIOUX FALLS    MOSUNNY   77  52  41 NW8       30.04F
HURON          SUNNY     77  50  38 W5        30.03S
MITCHELL       SUNNY     78  49  35 CALM      30.04F
YANKTON        SUNNY     75  55  50 NW3       30.04S
$$

ABBREVIATIONS USED IN REMARKS
   TC - TEMPERATURE IN CELSIUS
  WCI - WIND CHILL INDEX
   HX - HEAT INDEX
  VSB - VISIBILITY





USA.gov is the U.S. government's official web portal to all federal, state and local government web resources and services.